QPF
0.01 0.01 0.01 0.02 0.02 0.02 0.02 0.03 0.03 0.02 0.02 0.03 0.04 0.05 0.04 0.02 0.02 0.02 0.01 0.01 0.02 0.02 0.03 0.03 0.03 0.04 0.05 0.05 0.04 0.02 0.01 0.01 0.01 0.00 0.00 0.01 0.01 0.02 0.02 0.02 0.02 0.02 0.03
0.01 0.01 0.02 0.03 0.03 0.03 0.04 0.07 0.05 0.02 0.03 0.03 0.05 0.10 0.09 0.04 0.03 0.03 0.02 0.02 0.02 0.02 0.03 0.03 0.02 0.03 0.05 0.05 0.04 0.03 0.02 0.02 0.01 0.01 0.00 0.00 0.01 0.01 0.02 0.02 0.02 0.05 0.04
0.01 0.03 0.07 0.07 0.06 0.04 0.04 0.06 0.04 0.02 0.02 0.04 0.04 0.09 0.15 0.08 0.05 0.04 0.03 0.02 0.02 0.02 0.03 0.04 0.03 0.03 0.04 0.05 0.04 0.04 0.04 0.03 0.03 0.02 0.02 0.01 0.01 0.01 0.01 0.02 0.02 0.03 0.03
0.01 0.02 0.04 0.05 0.04 0.03 0.02 0.03 0.02 0.02 0.02 0.03 0.05 0.08 0.14 0.08 0.05 0.05 0.03 0.02 0.02 0.02 0.03 0.04 0.04 0.04 0.04 0.05 0.06 0.06 0.04 0.02 0.02 0.02 0.02 0.02 0.01 0.01 0.01 0.02 0.03 0.03 0.03
0.01 0.01 0.02 0.04 0.03 0.02 0.03 0.03 0.02 0.02 0.02 0.03 0.05 0.07 0.13 0.07 0.04 0.04 0.03 0.02 0.02 0.02 0.04 0.05 0.04 0.04 0.04 0.04 0.07 0.08 0.03 0.02 0.02 0.01 0.01 0.02 0.02 0.02 0.02 0.02 0.02 0.02 0.03
0.01 0.01 0.02 0.02 0.03 0.03 0.04 0.05 0.03 0.03 0.03 0.04 0.04 0.05 0.09 0.07 0.04 0.03 0.02 0.02 0.02 0.02 0.04 0.07 0.07 0.05 0.05 0.08 0.05 0.06 0.03 0.02 0.02 0.02 0.03 0.02 0.02 0.03 0.02 0.02 0.03 0.04 0.05
0.00 0.01 0.02 0.02 0.02 0.02 0.03 0.03 0.04 0.04 0.04 0.04 0.05 0.05 0.08 0.08 0.06 0.04 0.03 0.03 0.02 0.02 0.02 0.03 0.06 0.05 0.03 0.08 0.08 0.04 0.02 0.02 0.02 0.01 0.01 0.01 0.01 0.03 0.03 0.03 0.04 0.05 0.06
0.01 0.01 0.01 0.01 0.01 0.01 0.02 0.04 0.04 0.03 0.04 0.06 0.07 0.07 0.09 0.10 0.08 0.06 0.05 0.04 0.03 0.02 0.02 0.02 0.02 0.03 0.06 0.06 0.06 0.03 0.01 0.02 0.02 0.01 0.01 0.01 0.02 0.03 0.03 0.04 0.05 0.06 0.07
0.01 0.01 0.01 0.02 0.02 0.01 0.03 0.08 0.08 0.06 0.08 0.07 0.09 0.08 0.08 0.09 0.08 0.07 0.06 0.05 0.03 0.03 0.03 0.02 0.02 0.02 0.03 0.03 0.02 0.02 0.02 0.03 0.02 0.02 0.01 0.03 0.03 0.04 0.04 0.06 0.06 0.07 0.07
0.01 0.01 0.01 0.02 0.02 0.02 0.01 0.02 0.03 0.05 0.09 0.06 0.05 0.06 0.06 0.05 0.06 0.07 0.08 0.06 0.04 0.04 0.04 0.04 0.04 0.04 0.03 0.02 0.02 0.02 0.03 0.03 0.03 0.02 0.02 0.01 0.02 0.04 0.05 0.07 0.07 0.10 0.09
0.01 0.01 0.01 0.01 0.01 0.01 0.01 0.01 0.02 0.03 0.04 0.05 0.04 0.05 0.05 0.06 0.06 0.06 0.06 0.07 0.06 0.06 0.06 0.06 0.06 0.05 0.04 0.03 0.03 0.03 0.04 0.03 0.03 0.03 0.02 0.01 0.01 0.02 0.04 0.05 0.06 0.08 0.11
0.01 0.01 0.01 0.01 0.01 0.01 0.01 0.01 0.02 0.02 0.03 0.04 0.05 0.06 0.07 0.06 0.05 0.04 0.07 0.08 0.09 0.09 0.08 0.07 0.06 0.05 0.04 0.04 0.05 0.05 0.04 0.04 0.03 0.04 0.03 0.02 0.02 0.03 0.04 0.05 0.06 0.07 0.11
0.01 0.00 0.00 0.01 0.02 0.02 0.02 0.02 0.03 0.03 0.03 0.04 0.04 0.05 0.06 0.06 0.04 0.04 0.07 0.11 0.17 0.15 0.11 0.08 0.07 0.05 0.04 0.05 0.06 0.05 0.04 0.03 0.04 0.03 0.03 0.02 0.02 0.02 0.03 0.04 0.05 0.06 0.07
0.01 0.01 0.01 0.01 0.01 0.03 0.05 0.07 0.05 0.04 0.04 0.03 0.03 0.03 0.04 0.04 0.04 0.04 0.05 0.05 0.08 0.17 0.19 0.11 0.06 0.05 0.04 0.04 0.05 0.04 0.03 0.04 0.03 0.02 0.02 0.02 0.02 0.03 0.04 0.04 0.05 0.06 0.07
0.01 0.01 0.01 0.01 0.02 0.03 0.06 0.14 0.14 0.09 0.06 0.05 0.05 0.04 0.04 0.04 0.04 0.03 0.04 0.05 0.04 0.04 0.10 0.14 0.10 0.07 0.05 0.04 0.04 0.03 0.04 0.04 0.04 0.03 0.02 0.02 0.02 0.03 0.04 0.05 0.05 0.06 0.08
0.01 0.01 0.01 0.01 0.02 0.03 0.03 0.08 0.18 0.18 0.14 0.11 0.09 0.07 0.06 0.06 0.04 0.03 0.03 0.04 0.03 0.03 0.04 0.06 0.07 0.06 0.06 0.05 0.04 0.03 0.04 0.04 0.03 0.02 0.02 0.02 0.02 0.02 0.02 0.03 0.04 0.05 0.07
0.02 0.02 0.02 0.02 0.03 0.03 0.03 0.05 0.11 0.20 0.20 0.19 0.17 0.12 0.10 0.08 0.06 0.05 0.04 0.04 0.03 0.03 0.03 0.04 0.04 0.04 0.06 0.05 0.04 0.03 0.04 0.04 0.03 0.02 0.02 0.03 0.03 0.02 0.02 0.02 0.03 0.04 0.06
0.03 0.03 0.03 0.03 0.03 0.04 0.05 0.07 0.09 0.13 0.14 0.14 0.13 0.10 0.08 0.09 0.08 0.07 0.05 0.04 0.04 0.03 0.03 0.03 0.03 0.03 0.04 0.05 0.05 0.04 0.04 0.03 0.03 0.02 0.02 0.02 0.02 0.02 0.02 0.02 0.02 0.03 0.03
0.04 0.04 0.04 0.04 0.04 0.06 0.07 0.07 0.09 0.11 0.11 0.09 0.09 0.09 0.07 0.07 0.07 0.07 0.06 0.05 0.05 0.03 0.03 0.04 0.04 0.04 0.05 0.06 0.06 0.05 0.04 0.03 0.02 0.01 0.01 0.01 0.01 0.02 0.02 0.02 0.02 0.01 0.02
0.03 0.04 0.04 0.04 0.06 0.08 0.08 0.07 0.06 0.09 0.10 0.08 0.07 0.08 0.06 0.06 0.07 0.07 0.08 0.07 0.06 0.05 0.04 0.06 0.08 0.08 0.08 0.09 0.07 0.05 0.05 0.03 0.02 0.01 0.01 0.01 0.01 0.02 0.02 0.02 0.02 0.02 0.02
0.04 0.04 0.05 0.07 0.09 0.09 0.08 0.08 0.06 0.07 0.08 0.09 0.08 0.07 0.05 0.06 0.06 0.07 0.08 0.08 0.07 0.06 0.08 0.10 0.11 0.11 0.11 0.11 0.09 0.07 0.04 0.03 0.02 0.01 0.01 0.01 0.01 0.01 0.02 0.01 0.01 0.02 0.03
0.03 0.04 0.05 0.06 0.07 0.09 0.11 0.11 0.09 0.08 0.07 0.07 0.06 0.06 0.05 0.05 0.04 0.06 0.08 0.10 0.10 0.10 0.11 0.10 0.11 0.11 0.11 0.11 0.10 0.08 0.04 0.03 0.02 0.01 0.01 0.01 0.01 0.01 0.00 0.01 0.01 0.02 0.02
0.02 0.03 0.05 0.05 0.06 0.08 0.12 0.13 0.12 0.09 0.06 0.06 0.05 0.06 0.05 0.06 0.06 0.07 0.10 0.10 0.09 0.09 0.09 0.09 0.10 0.10 0.09 0.09 0.08 0.08 0.05 0.03 0.03 0.02 0.01 0.01 0.01 0.01 0.01 0.01 0.01 0.01 0.01
0.03 0.04 0.05 0.05 0.06 0.10 0.12 0.12 0.11 0.08 0.06 0.06 0.06 0.06 0.05 0.05 0.05 0.08 0.10 0.08 0.06 0.06 0.06 0.06 0.06 0.07 0.07 0.06 0.07 0.06 0.06 0.05 0.05 0.04 0.02 0.02 0.01 0.01 0.01 0.02 0.01 0.01 0.01
0.04 0.03 0.04 0.05 0.07 0.09 0.09 0.09 0.08 0.07 0.07 0.06 0.05 0.04 0.04 0.03 0.03 0.04 0.04 0.04 0.03 0.04 0.05 0.04 0.04 0.04 0.04 0.04 0.05 0.06 0.06 0.05 0.05 0.04 0.03 0.03 0.02 0.01 0.01 0.02 0.02 0.02 0.02
0.05 0.04 0.04 0.04 0.05 0.07 0.07 0.08 0.07 0.06 0.06 0.05 0.03 0.03 0.02 0.02 0.02 0.02 0.02 0.03 0.02 0.03 0.04 0.04 0.04 0.04 0.03 0.04 0.05 0.06 0.06 0.06 0.06 0.06 0.05 0.04 0.04 0.03 0.02 0.02 0.02 0.02 0.02
MSLP
1009.63 1009.71 1010.05 1010.61 1011.26 1011.90 1012.46 1012.87 1013.15 1013.31 1013.42 1013.56 1013.76 1014.06 1014.44 1014.87 1015.28 1015.64 1015.89 1016.03 1016.07 1016.05 1016.02 1016.01 1016.04 1016.14 1016.26 1016.40 1016.51 1016.58 1016.58 1016.53 1016.45 1016.36 1016.29 1016.25 1016.25 1016.28 1016.34 1016.41 1016.49 1016.56 1016.64
1009.47 1009.65 1010.09 1010.72 1011.43 1012.11 1012.69 1013.11 1013.38 1013.53 1013.64 1013.77 1013.97 1014.27 1014.65 1015.08 1015.49 1015.84 1016.07 1016.19 1016.22 1016.19 1016.14 1016.13 1016.17 1016.26 1016.39 1016.52 1016.61 1016.65 1016.63 1016.56 1016.45 1016.35 1016.27 1016.23 1016.24 1016.28 1016.35 1016.42 1016.49 1016.56 1016.63
1009.28 1009.58 1010.12 1010.83 1011.60 1012.32 1012.93 1013.37 1013.65 1013.81 1013.92 1014.05 1014.24 1014.52 1014.88 1015.27 1015.64 1015.95 1016.16 1016.26 1016.29 1016.27 1016.25 1016.27 1016.33 1016.44 1016.57 1016.67 1016.73 1016.72 1016.65 1016.52 1016.37 1016.24 1016.15 1016.12 1016.14 1016.21 1016.29 1016.38 1016.46 1016.53 1016.59
1009.10 1009.52 1010.16 1010.95 1011.77 1012.53 1013.17 1013.63 1013.94 1014.12 1014.24 1014.37 1014.55 1014.80 1015.11 1015.44 1015.76 1016.02 1016.20 1016.30 1016.34 1016.35 1016.38 1016.45 1016.56 1016.69 1016.82 1016.90 1016.90 1016.82 1016.67 1016.46 1016.25 1016.08 1015.98 1015.95 1015.99 1016.08 1016.20 1016.31 1016.41 1016.49 1016.55
1008.98 1009.52 1010.24 1011.08 1011.94 1012.73 1013.38 1013.87 1014.20 1014.41 1014.55 1014.69 1014.86 1015.09 1015.35 1015.64 1015.90 1016.11 1016.26 1016.35 1016.42 1016.48 1016.57 1016.69 1016.85 1017.01 1017.13 1017.17 1017.11 1016.95 1016.70 1016.41 1016.13 1015.92 1015.79 1015.76 1015.82 1015.94 1016.08 1016.22 1016.34 1016.43 1016.49
1008.97 1009.59 1010.36 1011.23 1012.10 1012.89 1013.55 1014.06 1014.41 1014.65 1014.82 1014.98 1015.16 1015.38 1015.61 1015.85 1016.07 1016.24 1016.36 1016.45 1016.54 1016.64 1016.78 1016.95 1017.14 1017.32 1017.43 1017.43 1017.31 1017.07 1016.74 1016.38 1016.03 1015.77 1015.61 1015.58 1015.65 1015.79 1015.95 1016.11 1016.24 1016.33 1016.39
1009.07 1009.73 1010.52 1011.38 1012.23 1013.00 1013.65 1014.15 1014.53 1014.80 1015.01 1015.21 1015.41 1015.63 1015.86 1016.08 1016.26 1016.41 1016.51 1016.59 1016.68 1016.80 1016.96 1017.16 1017.37 1017.54 1017.63 1017.60 1017.43 1017.14 1016.75 1016.33 1015.95 1015.65 1015.47 1015.43 1015.49 1015.63 1015.79 1015.95 1016.08 1016.16 1016.21
1009.26 1009.92 1010.69 1011.51 1012.31 1013.04 1013.66 1014.15 1014.54 1014.84 1015.10 1015.34 1015.58 1015.83 1016.07 1016.29 1016.46 1016.58 1016.67 1016.73 1016.80 1016.91 1017.06 1017.24 1017.43 1017.58 1017.65 1017.60 1017.41 1017.09 1016.69 1016.26 1015.86 1015.55 1015.36 1015.29 1015.34 1015.45 1015.60 1015.73 1015.83 1015.89 1015.93
1009.50 1010.14 1010.87 1011.62 1012.35 1013.01 1013.58 1014.05 1014.44 1014.76 1015.06 1015.35 1015.64 1015.93 1016.20 1016.43 1016.61 1016.72 1016.79 1016.82 1016.86 1016.92 1017.02 1017.15 1017.29 1017.41 1017.45 1017.38 1017.20 1016.90 1016.53 1016.13 1015.75 1015.45 1015.26 1015.18 1015.19 1015.26 1015.36 1015.44 1015.50 1015.53 1015.54
1009.78 1010.37 1011.03 1011.70 1012.34 1012.93 1013.44 1013.88 1014.25 1014.59 1014.91 1015.24 1015.57 1015.90 1016.21 1016.47 1016.66 1016.78 1016.83 1016.84 1016.82 1016.82 1016.84 1016.90 1016.97 1017.03 1017.05 1016.99 1016.83 1016.59 1016.29 1015.95 1015.63 1015.37 1015.18 1015.08 1015.05 1015.06 1015.09 1015.12 1015.12 1015.11 1015.09
1010.05 1010.59 1011.17 1011.75 1012.31 1012.82 1013.27 1013.67 1014.02 1014.35 1014.68 1015.03 1015.39 1015.75 1016.09 1016.38 1016.61 1016.74 1016.79 1016.77 1016.71 1016.63 1016.58 1016.54 1016.54 1016.54 1016.53 1016.49 1016.38 1016.22 1016.01 1015.77 1015.53 1015.32 1015.15 1015.03 1014.95 1014.89 1014.85 1014.80 1014.74 1014.69 1014.64
1010.32 1010.80 1011.30 1011.80 1012.28 1012.72 1013.11 1013.46 1013.79 1014.10 1014.42 1014.76 1015.13 1015.50 1015.86 1016.18 1016.43 1016.60 1016.66 1016.64 1016.55 1016.42 1016.29 1016.18 1016.10 1016.05 1016.02 1016.00 1015.95 1015.88 1015.78 1015.64 1015.49 1015.34 1015.18 1015.04 1014.91 1014.79 1014.67 1014.56 1014.44 1014.35 1014.28
1010.57 1011.00 1011.43 1011.87 1012.28 1012.67 1013.01 1013.33 1013.62 1013.90 1014.18 1014.50 1014.84 1015.20 1015.56 1015.90 1016.18 1016.38 1016.48 1016.48 1016.39 1016.24 1016.07 1015.90 1015.76 1015.67 1015.63 1015.63 1015.64 1015.66 1015.66 1015.62 1015.55 1015.45 1015.32 1015.16 1014.98 1014.80 1014.62 1014.44 1014.28 1014.15 1014.07
1010.82 1011.19 1011.58 1011.96 1012.33 1012.69 1013.01 1013.30 1013.56 1013.80 1014.05 1014.31 1014.60 1014.92 1015.26 1015.60 1015.91 1016.15 1016.29 1016.34 1016.28 1016.14 1015.96 1015.77 1015.60 1015.49 1015.44 1015.46 1015.52 1015.61 1015.69 1015.74 1015.73 1015.67 1015.55 1015.38 1015.17 1014.93 1014.70 1014.48 1014.28 1014.14 1014.04
1011.05 1011.39 1011.73 1012.09 1012.45 1012.79 1013.12 1013.40 1013.65 1013.87 1014.06 1014.26 1014.48 1014.74 1015.03 1015.35 1015.66 1015.93 1016.13 1016.24 1016.24 1016.15 1015.99 1015.81 1015.64 1015.52 1015.47 1015.50 1015.59 1015.72 1015.86 1015.96 1016.01 1015.97 1015.86 1015.67 1015.43 1015.16 1014.89 1014.65 1014.44 1014.28 1014.18
1011.27 1011.57 1011.90 1012.24 1012.61 1012.99 1013.34 1013.65 1013.91 1014.12 1014.27 1014.41 1014.55 1014.72 1014.94 1015.21 1015.50 1015.79 1016.03 1016.20 1016.27 1016.24 1016.13 1015.98 1015.83 1015.71 1015.66 1015.70 1015.80 1015.95 1016.11 1016.24 1016.31 1016.29 1016.18 1015.98 1015.73 1015.44 1015.15 1014.89 1014.68 1014.52 1014.42
1011.46 1011.73 1012.05 1012.41 1012.81 1013.23 1013.65 1014.02 1014.32 1014.53 1014.67 1014.75 1014.81 1014.89 1015.02 1015.21 1015.46 1015.73 1016.00 1016.21 1016.34 1016.38 1016.33 1016.22 1016.09 1015.98 1015.93 1015.96 1016.06 1016.20 1016.37 1016.50 1016.57 1016.56 1016.44 1016.24 1015.97 1015.68 1015.39 1015.13 1014.92 1014.77 1014.67
1011.62 1011.87 1012.17 1012.55 1013.00 1013.49 1013.99 1014.44 1014.81 1015.07 1015.21 1015.26 1015.25 1015.24 1015.28 1015.38 1015.56 1015.79 1016.04 1016.28 1016.45 1016.54 1016.53 1016.46 1016.36 1016.25 1016.20 1016.20 1016.28 1016.40 1016.54 1016.67 1016.73 1016.70 1016.58 1016.38 1016.11 1015.82 1015.53 1015.27 1015.07 1014.92 1014.82
1011.76 1011.97 1012.27 1012.67 1013.17 1013.74 1014.33 1014.87 1015.33 1015.65 1015.82 1015.86 1015.82 1015.74 1015.68 1015.69 1015.78 1015.95 1016.17 1016.40 1016.58 1016.69 1016.72 1016.68 1016.58 1016.48 1016.40 1016.38 1016.42 1016.50 1016.61 1016.71 1016.75 1016.71 1016.58 1016.38 1016.11 1015.82 1015.53 1015.28 1015.08 1014.93 1014.83
1011.89 1012.07 1012.36 1012.77 1013.31 1013.94 1014.61 1015.25 1015.80 1016.20 1016.43 1016.49 1016.43 1016.31 1016.19 1016.12 1016.13 1016.23 1016.39 1016.59 1016.76 1016.87 1016.91 1016.87 1016.77 1016.65 1016.55 1016.49 1016.48 1016.52 1016.59 1016.64 1016.66 1016.60 1016.46 1016.25 1015.98 1015.69 1015.40 1015.14 1014.93 1014.78 1014.67
1012.05 1012.20 1012.46 1012.87 1013.43 1014.10 1014.82 1015.54 1016.17 1016.65 1016.95 1017.06 1017.02 1016.89 1016.74 1016.61 1016.57 1016.60 1016.71 1016.86 1017.01 1017.10 1017.13 1017.08 1016.97 1016.83 1016.69 1016.59 1016.53 1016.51 1016.53 1016.54 1016.52 1016.44 1016.29 1016.06 1015.78 1015.47 1015.16 1014.89 1014.66 1014.49 1014.36
1012.28 1012.39 1012.62 1013.01 1013.55 1014.22 1014.97 1015.73 1016.42 1016.97 1017.33 1017.51 1017.52 1017.43 1017.28 1017.14 1017.06 1017.06 1017.13 1017.24 1017.35 1017.43 1017.44 1017.37 1017.24 1017.07 1016.89 1016.74 1016.62 1016.56 1016.52 1016.48 1016.42 1016.30 1016.12 1015.87 1015.56 1015.23 1014.89 1014.59 1014.33 1014.13 1013.97
1012.65 1012.72 1012.90 1013.24 1013.73 1014.36 1015.09 1015.84 1016.55 1017.15 1017.58 1017.82 1017.91 1017.87 1017.76 1017.65 1017.58 1017.57 1017.62 1017.71 1017.80 1017.85 1017.84 1017.76 1017.61 1017.41 1017.19 1017.00 1016.83 1016.71 1016.61 1016.52 1016.42 1016.26 1016.04 1015.75 1015.41 1015.03 1014.65 1014.30 1014.00 1013.75 1013.56
1013.17 1013.20 1013.33 1013.60 1014.01 1014.57 1015.23 1015.94 1016.63 1017.23 1017.70 1018.01 1018.17 1018.20 1018.17 1018.11 1018.07 1018.08 1018.14 1018.22 1018.31 1018.35 1018.33 1018.23 1018.06 1017.84 1017.60 1017.36 1017.15 1016.98 1016.83 1016.70 1016.54 1016.34 1016.07 1015.74 1015.34 1014.92 1014.48 1014.07 1013.70 1013.40 1013.17
1013.85 1013.85 1013.92 1014.11 1014.43 1014.88 1015.44 1016.07 1016.70 1017.29 1017.77 1018.12 1018.34 1018.45 1018.48 1018.49 1018.50 1018.55 1018.63 1018.72 1018.80 1018.84 1018.82 1018.71 1018.54 1018.31 1018.04 1017.78 1017.54 1017.33 1017.14 1016.96 1016.76 1016.51 1016.20 1015.81 1015.37 1014.88 1014.38 1013.90 1013.47 1013.10 1012.80
1014.67 1014.65 1014.67 1014.77 1014.99 1015.32 1015.77 1016.29 1016.84 1017.38 1017.84 1018.20 1018.46 1018.62 1018.72 1018.78 1018.84 1018.92 1019.01 1019.12 1019.20 1019.24 1019.22 1019.11 1018.94 1018.71 1018.44 1018.17 1017.91 1017.68 1017.46 1017.25 1017.01 1016.72 1016.36 1015.93 1015.44 1014.89 1014.32 1013.77 1013.26 1012.82 1012.45
Thickness
5816 5813 5799 5795 5792 5789 5786 5784 5781 5778 5775 5773 5770 5767 5765 5762 5760 5758 5756 5754 5753 5751 5750 5748 5747 5745 5744 5743 5742 5742 5741 5741 5740 5740 5739 5739 5739 5738 5737 5737 5737 5739 5737
5817 5810 5797 5793 5789 5786 5783 5781 5778 5775 5772 5769 5766 5764 5761 5759 5757 5755 5753 5751 5749 5748 5746 5745 5744 5743 5741 5740 5739 5739 5738 5738 5737 5737 5737 5737 5737 5736 5735 5734 5735 5737 5734
5813 5806 5795 5790 5787 5783 5780 5778 5775 5772 5769 5766 5763 5760 5757 5755 5753 5751 5749 5748 5746 5744 5743 5741 5741 5740 5738 5737 5736 5735 5735 5735 5734 5734 5734 5739 5739 5734 5732 5731 5731 5730 5730
5809 5802 5795 5787 5784 5781 5777 5774 5772 5769 5766 5763 5760 5757 5755 5752 5750 5748 5746 5744 5743 5741 5740 5738 5737 5736 5735 5734 5733 5732 5731 5731 5731 5731 5735 5739 5738 5733 5730 5728 5727 5727 5726
5804 5799 5791 5784 5780 5777 5774 5771 5768 5766 5763 5760 5757 5754 5751 5748 5746 5744 5742 5741 5739 5737 5736 5735 5733 5732 5731 5730 5729 5729 5728 5727 5728 5729 5735 5736 5735 5730 5727 5725 5724 5723 5723
5799 5796 5788 5782 5777 5774 5771 5768 5765 5762 5760 5757 5754 5750 5748 5744 5742 5740 5738 5736 5735 5733 5732 5731 5730 5729 5728 5727 5726 5725 5724 5724 5725 5731 5732 5731 5731 5726 5723 5722 5721 5721 5720
5797 5793 5786 5778 5774 5771 5768 5765 5762 5760 5757 5754 5751 5747 5744 5741 5738 5736 5734 5733 5731 5730 5729 5728 5727 5726 5725 5724 5723 5722 5721 5721 5724 5730 5729 5728 5728 5723 5720 5719 5718 5718 5717
5794 5790 5782 5774 5770 5767 5765 5762 5759 5757 5754 5751 5747 5744 5741 5738 5735 5733 5731 5729 5728 5727 5726 5725 5724 5723 5722 5721 5720 5719 5718 5717 5722 5726 5725 5725 5721 5718 5716 5715 5715 5714 5714
5792 5788 5781 5774 5768 5764 5761 5758 5756 5753 5751 5748 5744 5741 5737 5735 5732 5730 5728 5726 5725 5724 5723 5721 5720 5719 5718 5717 5716 5716 5714 5714 5717 5722 5722 5720 5717 5714 5712 5711 5711 5710 5710
5788 5785 5781 5775 5770 5764 5760 5755 5752 5750 5747 5744 5741 5738 5735 5732 5730 5727 5725 5723 5722 5721 5720 5718 5717 5716 5715 5714 5713 5712 5712 5711 5716 5719 5718 5716 5712 5709 5708 5708 5707 5707 5707
5781 5780 5778 5774 5769 5765 5761 5754 5749 5746 5743 5741 5738 5735 5732 5732 5731 5727 5725 5721 5719 5718 5716 5715 5714 5713 5712 5711 5710 5709 5709 5712 5715 5715 5714 5711 5707 5705 5705 5704 5704 5703 5703
5775 5775 5774 5770 5766 5762 5759 5753 5749 5746 5742 5740 5738 5735 5732 5730 5728 5726 5722 5718 5716 5714 5713 5712 5711 5711 5710 5712 5711 5707 5709 5710 5712 5711 5710 5706 5703 5702 5701 5700 5700 5700 5699
5773 5770 5769 5766 5762 5760 5756 5751 5748 5745 5741 5738 5735 5732 5729 5727 5725 5723 5721 5717 5715 5713 5714 5712 5711 5711 5710 5710 5709 5708 5708 5709 5709 5709 5707 5702 5700 5699 5698 5697 5697 5697 5696
5769 5765 5764 5761 5757 5754 5752 5748 5744 5742 5738 5736 5732 5729 5727 5724 5722 5721 5718 5717 5715 5714 5712 5711 5710 5709 5708 5707 5706 5706 5705 5705 5705 5705 5702 5698 5696 5695 5694 5694 5693 5693 5693
5764 5761 5760 5757 5752 5749 5745 5743 5741 5737 5735 5731 5727 5724 5722 5721 5719 5718 5715 5712 5712 5710 5710 5708 5708 5706 5705 5705 5704 5703 5703 5702 5701 5701 5699 5695 5693 5691 5691 5690 5690 5690 5689
5759 5757 5755 5751 5748 5744 5741 5738 5736 5733 5729 5727 5723 5720 5718 5717 5715 5713 5711 5709 5709 5707 5706 5705 5704 5702 5703 5702 5701 5699 5698 5698 5696 5695 5696 5693 5690 5688 5687 5687 5686 5686 5686
5755 5753 5750 5747 5743 5740 5737 5734 5732 5730 5726 5724 5719 5716 5713 5712 5710 5709 5708 5706 5705 5704 5701 5700 5700 5699 5699 5698 5697 5696 5695 5694 5693 5692 5691 5691 5689 5686 5684 5683 5682 5682 5682
5751 5748 5745 5744 5740 5736 5733 5729 5727 5725 5722 5720 5717 5714 5710 5708 5707 5705 5704 5703 5701 5701 5700 5698 5697 5696 5695 5695 5694 5693 5692 5690 5689 5688 5688 5687 5686 5685 5682 5679 5678 5678 5678
5746 5743 5740 5738 5735 5732 5728 5724 5722 5718 5717 5716 5713 5710 5707 5705 5704 5702 5701 5699 5697 5698 5696 5696 5695 5693 5691 5690 5689 5688 5688 5687 5686 5686 5685 5684 5683 5681 5680 5677 5675 5674 5674
5743 5740 5737 5734 5731 5727 5723 5719 5717 5715 5712 5711 5709 5705 5703 5702 5700 5699 5698 5695 5694 5694 5692 5690 5688 5686 5686 5685 5685 5684 5684 5684 5683 5682 5681 5681 5679 5678 5677 5676 5674 5673 5671
5737 5735 5732 5729 5725 5722 5718 5714 5711 5709 5709 5706 5704 5701 5699 5699 5697 5695 5694 5691 5690 5689 5687 5686 5684 5683 5682 5681 5679 5678 5680 5680 5679 5677 5677 5677 5676 5675 5673 5672 5671 5671 5671
5730 5729 5727 5724 5722 5718 5714 5710 5707 5706 5704 5702 5700 5696 5695 5695 5694 5693 5690 5689 5687 5684 5682 5680 5678 5677 5677 5676 5673 5672 5672 5673 5673 5675 5673 5671 5671 5671 5670 5670 5668 5667 5667
5725 5723 5722 5719 5716 5713 5709 5707 5703 5700 5699 5697 5694 5693 5691 5690 5689 5687 5686 5684 5682 5681 5679 5676 5673 5671 5671 5671 5669 5667 5666 5666 5668 5670 5668 5667 5666 5665 5666 5666 5665 5663 5662
5721 5719 5716 5713 5710 5707 5705 5702 5698 5696 5694 5693 5692 5690 5688 5686 5684 5683 5681 5679 5678 5678 5675 5673 5671 5669 5666 5666 5665 5663 5662 5663 5658 5661 5663 5664 5663 5661 5661 5661 5661 5660 5659
5715 5713 5710 5707 5704 5701 5699 5696 5694 5693 5692 5691 5688 5686 5684 5683 5680 5679 5677 5676 5674 5674 5672 5669 5666 5665 5664 5663 5661 5659 5658 5657 5655 5652 5654 5656 5658 5659 5658 5657 5656 5656 5655
5709 5707 5704 5701 5697 5696 5694 5692 5690 5688 5687 5685 5683 5682 5681 5680 5678 5676 5674 5672 5671 5669 5667 5665 5663 5662 5660 5658 5657 5656 5654 5652 5651 5649 5648 5649 5650 5653 5653 5652 5652 5651 5651